• Em Portugal
  • Lista de países
  • Para 7 dias
  • Temperatura da água
  • Mapas de satélite
  • Mapa do tempo
  • Widgets de tempo
  • user-avatar
    Iniciar Sessão

    Previsão horária em Bucznik

    Hoje, 21 Outubro, Domingo

    Tempo Temperatura Precipitação Vento Pressão Humidade
    00:00 +7°C° 0 mm 1 m/s 758 mmHg 91%
    01:00 +7°C° 0 mm 1 m/s 758 mmHg 92%
    02:00 +7°C° 0 mm 1 m/s 758 mmHg 92%
    03:00 +6°C° 0 mm 1 m/s 758 mmHg 93%
    04:00 +6°C° 0 mm 1 m/s 758 mmHg 94%
    05:00 +6°C° 0 mm 1 m/s 758 mmHg 94%
    06:00 +6°C° 0 mm 1 m/s 759 mmHg 94%
    07:00 +6°C° 0 mm 1 m/s 759 mmHg 95%
    08:00 +8°C° 0 mm 1 m/s 759 mmHg 88%
    09:00 +10°C° 0 mm 1 m/s 759 mmHg 81%
    10:00 +10°C° 0 mm 2 m/s 760 mmHg 74%
    11:00 +12°C° 0 mm 2 m/s 760 mmHg 70%
    12:00 +13°C° 0 mm 2 m/s 760 mmHg 65%
    13:00 +14°C° 0 mm 2 m/s 760 mmHg 60%
    14:00 +13°C° 0 mm 2 m/s 759 mmHg 63%
    15:00 +13°C° 0 mm 1 m/s 759 mmHg 66%
    16:00 +12°C° 0 mm 1 m/s 759 mmHg 68%
    17:00 +11°C° 0 mm 1 m/s 759 mmHg 72%
    18:00 +9°C° 0 mm 2 m/s 759 mmHg 76%
    19:00 +8°C° 0 mm 2 m/s 759 mmHg 80%
    20:00 +8°C° 0 mm 2 m/s 759 mmHg 82%
    21:00 +8°C° 0 mm 2 m/s 759 mmHg 85%
    22:00 +7°C° 0 mm 3 m/s 759 mmHg 87%
    23:00 +7°C° 0 mm 3 m/s 759 mmHg 88%

    Amanhã, 22 Outubro, Segunda-feira

    Tempo Temperatura Precipitação Vento Pressão Humidade
    00:00 +7°C° 0 mm 3 m/s 758 mmHg 89%
    01:00 +5°C° 0 mm 3 m/s 758 mmHg 90%
    02:00 +5°C° 0 mm 3 m/s 758 mmHg 91%
    03:00 +5°C° 0 mm 3 m/s 758 mmHg 91%
    04:00 +5°C° 0 mm 4 m/s 758 mmHg 92%
    05:00 +5°C° 0 mm 4 m/s 757 mmHg 92%
    06:00 +5°C° 0 mm 4 m/s 757 mmHg 92%
    07:00 +5°C° 0 mm 4 m/s 757 mmHg 92%
    08:00 +6°C° 0 mm 4 m/s 757 mmHg 84%
    09:00 +8°C° 0 mm 5 m/s 756 mmHg 77%
    10:00 +9°C° 0 mm 5 m/s 756 mmHg 69%
    11:00 +9°C° 0.3 mm 5 m/s 756 mmHg 71%
    12:00 +9°C° 0.3 mm 5 m/s 756 mmHg 74%
    13:00 +9°C° 0.3 mm 5 m/s 755 mmHg 76%
    14:00 +9°C° 0.6 mm 5 m/s 755 mmHg 80%
    15:00 +9°C° 0.6 mm 5 m/s 755 mmHg 84%
    16:00 +8°C° 0.6 mm 5 m/s 755 mmHg 88%
    17:00 +8°C° 0.1 mm 4 m/s 755 mmHg 86%
    18:00 +7°C° 0.1 mm 4 m/s 755 mmHg 84%
    19:00 +7°C° 0.1 mm 4 m/s 756 mmHg 82%
    20:00 +6°C° 0 mm 4 m/s 756 mmHg 82%
    21:00 +5°C° 0 mm 4 m/s 756 mmHg 82%
    22:00 +5°C° 0 mm 3 m/s 756 mmHg 82%
    23:00 +4°C° 0 mm 3 m/s 756 mmHg 82%

    Depois de amanhã, 23 Outubro, Terça-feira

    Tempo Temperatura Precipitação Vento Pressão Humidade
    00:00 +4°C° 0 mm 4 m/s 756 mmHg 82%
    01:00 +4°C° 0 mm 4 m/s 756 mmHg 83%
    02:00 +4°C° 0 mm 4 m/s 755 mmHg 84%
    03:00 +3°C° 0 mm 4 m/s 755 mmHg 85%
    04:00 +3°C° 0 mm 4 m/s 754 mmHg 86%
    05:00 +3°C° 0.1 mm 5 m/s 753 mmHg 85%
    06:00 +3°C° 0.1 mm 6 m/s 752 mmHg 84%
    07:00 +3°C° 0.1 mm 6 m/s 751 mmHg 83%
    08:00 +4°C° 0.4 mm 8 m/s 750 mmHg 81%
    09:00 +3°C° 0.4 mm 9 m/s 749 mmHg 79%
    10:00 +5°C° 0.4 mm 10 m/s 748 mmHg 77%
    11:00 +5°C° 0.6 mm 10 m/s 746 mmHg 77%
    12:00 +4°C° 0.6 mm 11 m/s 745 mmHg 78%
    13:00 +4°C° 0.6 mm 11 m/s 743 mmHg 79%
    14:00 +6°C° 1 mm 11 m/s 742 mmHg 80%
    15:00 +6°C° 1 mm 11 m/s 740 mmHg 80%
    16:00 +6°C° 1 mm 11 m/s 739 mmHg 81%
    17:00 +7°C° 1.9 mm 11 m/s 737 mmHg 83%
    18:00 +7°C° 1.9 mm 10 m/s 736 mmHg 85%
    19:00 +8°C° 1.9 mm 10 m/s 735 mmHg 87%
    20:00 +7°C° 0.9 mm 9 m/s 735 mmHg 85%
    21:00 +7°C° 0.9 mm 8 m/s 735 mmHg 83%
    22:00 +8°C° 0.9 mm 7 m/s 734 mmHg 81%
    23:00 +6°C° 0.6 mm 7 m/s 735 mmHg 80%

    24 Outubro, Quarta-feira

    Tempo Temperatura Precipitação Vento Pressão Humidade
    00:00 +6°C° 0.6 mm 7 m/s 735 mmHg 80%
    01:00 +5°C° 0.6 mm 7 m/s 735 mmHg 79%
    02:00 +5°C° 0.8 mm 8 m/s 736 mmHg 74%
    03:00 +4°C° 0.8 mm 8 m/s 736 mmHg 69%
    04:00 +3°C° 0.8 mm 9 m/s 737 mmHg 63%
    05:00 +2°C° 0.1 mm 9 m/s 738 mmHg 63%
    06:00 +2°C° 0.1 mm 9 m/s 738 mmHg 63%
    07:00 +1°C° 0.1 mm 9 m/s 739 mmHg 62%
    08:00 +2°C° 0.2 mm 10 m/s 739 mmHg 61%
    09:00 +3°C° 0.2 mm 10 m/s 740 mmHg 59%
    10:00 +3°C° 0.2 mm 11 m/s 741 mmHg 57%
    11:00 +3°C° 0.2 mm 11 m/s 741 mmHg 57%
    12:00 +4°C° 0.2 mm 11 m/s 741 mmHg 57%
    13:00 +4°C° 0.2 mm 11 m/s 742 mmHg 57%
    14:00 +4°C° 0.2 mm 11 m/s 742 mmHg 58%
    15:00 +3°C° 0.2 mm 10 m/s 743 mmHg 60%
    16:00 +3°C° 0.2 mm 10 m/s 743 mmHg 62%
    17:00 +3°C° 0.1 mm 9 m/s 743 mmHg 63%
    18:00 +3°C° 0.1 mm 9 m/s 744 mmHg 64%
    19:00 +4°C° 0.1 mm 8 m/s 744 mmHg 65%
    20:00 +2°C° 0 mm 8 m/s 745 mmHg 66%
    21:00 +3°C° 0 mm 7 m/s 745 mmHg 67%
    22:00 +3°C° 0 mm 7 m/s 745 mmHg 67%
    23:00 +3°C° 0 mm 7 m/s 746 mmHg 68%

    25 Outubro, Quinta-feira

    Tempo Temperatura Precipitação Vento Pressão Humidade
    00:00 +3°C° 0 mm 6 m/s 746 mmHg 69%
    01:00 +3°C° 0 mm 6 m/s 746 mmHg 69%
    02:00 +2°C° 0 mm 6 m/s 746 mmHg 70%
    03:00 +2°C° 0 mm 6 m/s 746 mmHg 70%
    04:00 +2°C° 0 mm 6 m/s 746 mmHg 71%
    05:00 +2°C° 0 mm 5 m/s 746 mmHg 71%
    06:00 +2°C° 0 mm 5 m/s 745 mmHg 70%
    07:00 +2°C° 0 mm 5 m/s 745 mmHg 70%
    08:00 +2°C° 0.3 mm 5 m/s 744 mmHg 75%
    09:00 +3°C° 0.3 mm 6 m/s 744 mmHg 79%
    10:00 +3°C° 0.3 mm 6 m/s 743 mmHg 84%
    11:00 +5°C° 0.6 mm 7 m/s 742 mmHg 83%
    12:00 +6°C° 0.6 mm 7 m/s 741 mmHg 82%
    13:00 +9°C° 0.6 mm 8 m/s 740 mmHg 82%
    14:00 +9°C° 0.2 mm 8 m/s 740 mmHg 82%
    15:00 +9°C° 0.2 mm 8 m/s 739 mmHg 82%
    16:00 +9°C° 0.2 mm 8 m/s 739 mmHg 83%
    17:00 +9°C° 0.1 mm 8 m/s 739 mmHg 81%
    18:00 +7°C° 0.1 mm 8 m/s 739 mmHg 79%
    19:00 +8°C° 0.1 mm 7 m/s 739 mmHg 77%
    20:00 +8°C° 0 mm 7 m/s 739 mmHg 76%
    21:00 +6°C° 0 mm 7 m/s 739 mmHg 75%
    22:00 +6°C° 0 mm 7 m/s 740 mmHg 73%
    23:00 +5°C° 0 mm 6 m/s 740 mmHg 73%

    26 Outubro, Sexta-feira

    Tempo Temperatura Precipitação Vento Pressão Humidade
    00:00 +5°C° 0 mm 6 m/s 740 mmHg 73%
    01:00 +5°C° 0 mm 6 m/s 741 mmHg 73%
    02:00 +4°C° 0 mm 6 m/s 741 mmHg 74%
    03:00 +5°C° 0 mm 5 m/s 741 mmHg 76%
    04:00 +5°C° 0 mm 5 m/s 741 mmHg 77%
    05:00 +5°C° 0 mm 5 m/s 741 mmHg 79%
    06:00 +5°C° 0 mm 5 m/s 742 mmHg 80%
    07:00 +5°C° 0 mm 5 m/s 742 mmHg 82%
    08:00 +6°C° 0 mm 5 m/s 742 mmHg 77%
    09:00 +7°C° 0 mm 5 m/s 742 mmHg 72%
    10:00 +8°C° 0 mm 6 m/s 742 mmHg 67%
    11:00 +9°C° 0 mm 5 m/s 742 mmHg 66%
    12:00 +9°C° 0 mm 5 m/s 742 mmHg 64%
    13:00 +9°C° 0 mm 5 m/s 742 mmHg 63%
    14:00 +10°C° 0.7 mm 4 m/s 741 mmHg 71%
    15:00 +8°C° 0.7 mm 4 m/s 741 mmHg 79%
    16:00 +7°C° 0.7 mm 4 m/s 741 mmHg 86%
    17:00 +7°C° 0.9 mm 4 m/s 740 mmHg 86%
    18:00 +7°C° 0.9 mm 5 m/s 740 mmHg 86%
    19:00 +7°C° 0.9 mm 6 m/s 740 mmHg 86%
    20:00 +7°C° 0.1 mm 6 m/s 739 mmHg 86%
    21:00 +7°C° 0.1 mm 6 m/s 739 mmHg 87%
    22:00 +5°C° 0.1 mm 6 m/s 739 mmHg 87%
    23:00 +5°C° 0 mm 6 m/s 738 mmHg 87%
    Mostrar mais